Time,TemperatureF,DewpointF,PressureIn,WindDirection,WindDirectionDegrees,WindSpeedMPH,WindSpeedGustMPH,Humidity,HourlyPrecipIn,Conditions,Clouds,dailyrainin,SoftwareType,DateUTC
2013-02-28 00:01:00,28.0,1.0,30.24,WNW,294,3.0,8.0,30,0.00,,,0.00,,2013-02-28 07:01:00,
2013-02-28 00:11:00,28.0,1.0,30.24,WNW,294,3.0,8.0,30,0.00,,,0.00,,2013-02-28 07:11:00,
2013-02-28 00:21:00,27.0,0.0,30.24,WNW,294,2.0,6.0,30,0.00,,,0.00,,2013-02-28 07:21:00,
2013-02-28 00:32:00,25.0,-1.0,30.24,WSW,246,1.0,4.0,32,0.00,,,0.00,,2013-02-28 07:32:00,
2013-02-28 00:41:00,25.0,-1.0,30.24,WSW,246,1.0,4.0,32,0.00,,,0.00,,2013-02-28 07:41:00,
2013-02-28 00:51:00,27.0,2.0,30.24,WNW,288,3.0,7.0,33,0.00,,,0.00,,2013-02-28 07:51:00,
2013-02-28 01:01:00,27.0,2.0,30.24,WNW,296,4.0,7.0,33,0.00,,,0.00,,2013-02-28 08:01:00,
2013-02-28 01:11:00,27.0,2.0,30.24,WNW,296,4.0,7.0,33,0.00,,,0.00,,2013-02-28 08:11:00,
2013-02-28 01:22:00,27.0,2.0,30.24,WNW,300,3.0,6.0,33,0.00,,,0.00,,2013-02-28 08:22:00,
2013-02-28 01:32:00,27.0,2.0,30.24,WNW,303,2.0,7.0,34,0.00,,,0.00,,2013-02-28 08:32:00,
2013-02-28 01:42:00,27.0,2.0,30.24,WNW,303,2.0,7.0,34,0.00,,,0.00,,2013-02-28 08:42:00,
2013-02-28 01:53:00,27.0,2.0,30.24,NW,306,2.0,6.0,34,0.00,,,0.00,,2013-02-28 08:53:00,
2013-02-28 02:03:00,26.0,2.0,30.24,WNW,299,4.0,7.0,35,0.00,,,0.00,,2013-02-28 09:03:00,
2013-02-28 02:11:00,26.0,2.0,30.24,WNW,299,4.0,7.0,35,0.00,,,0.00,,2013-02-28 09:11:00,
2013-02-28 02:22:00,26.0,3.0,30.24,WNW,298,1.0,6.0,36,0.00,,,0.00,,2013-02-28 09:22:00,
2013-02-28 02:32:00,27.0,4.0,30.24,NW,319,1.0,4.0,36,0.00,,,0.00,,2013-02-28 09:32:00,
2013-02-28 02:42:00,27.0,4.0,30.24,NW,319,1.0,4.0,36,0.00,,,0.00,,2013-02-28 09:42:00,
2013-02-28 02:52:00,26.0,3.0,30.23,NW,325,1.0,4.0,36,0.00,,,0.00,,2013-02-28 09:52:00,
2013-02-28 03:01:00,25.0,2.0,30.22,NNW,333,1.0,3.0,37,0.00,,,0.00,,2013-02-28 10:01:00,
2013-02-28 03:11:00,25.0,2.0,30.22,NNW,333,1.0,3.0,37,0.00,,,0.00,,2013-02-28 10:11:00,
2013-02-28 03:22:00,25.0,2.0,30.22,WNW,303,1.0,5.0,37,0.00,,,0.00,,2013-02-28 10:22:00,
2013-02-28 03:32:00,26.0,3.0,30.22,NW,304,2.0,6.0,37,0.00,,,0.00,,2013-02-28 10:32:00,
2013-02-28 03:42:00,26.0,3.0,30.22,NW,304,2.0,6.0,37,0.00,,,0.00,,2013-02-28 10:42:00,
2013-02-28 03:52:00,25.0,3.0,30.22,WNW,291,3.0,6.0,38,0.00,,,0.00,,2013-02-28 10:52:00,
2013-02-28 04:01:00,25.0,3.0,30.22,WNW,298,3.0,7.0,38,0.00,,,0.00,,2013-02-28 11:01:00,
2013-02-28 04:11:00,25.0,3.0,30.22,WNW,298,3.0,7.0,38,0.00,,,0.00,,2013-02-28 11:11:00,
2013-02-28 04:22:00,25.0,3.0,30.23,WNW,295,3.0,7.0,38,0.00,,,0.00,,2013-02-28 11:22:00,
2013-02-28 04:32:00,26.0,3.0,30.23,WNW,297,4.0,8.0,37,0.00,,,0.00,,2013-02-28 11:32:00,
2013-02-28 04:42:00,26.0,3.0,30.23,WNW,297,4.0,8.0,37,0.00,,,0.00,,2013-02-28 11:42:00,
2013-02-28 04:52:00,26.0,3.0,30.24,WNW,297,4.0,9.0,37,0.00,,,0.00,,2013-02-28 11:52:00,
2013-02-28 05:01:00,25.0,3.0,30.24,WNW,298,3.0,7.0,38,0.00,,,0.00,,2013-02-28 12:01:00,
2013-02-28 05:11:00,25.0,3.0,30.24,WNW,298,3.0,7.0,38,0.00,,,0.00,,2013-02-28 12:11:00,
2013-02-28 05:22:00,24.0,3.0,30.25,WNW,300,3.0,7.0,39,0.00,,,0.00,,2013-02-28 12:22:00,
2013-02-28 05:32:00,24.0,3.0,30.25,WNW,301,1.0,5.0,40,0.00,,,0.00,,2013-02-28 12:32:00,
2013-02-28 05:42:00,24.0,3.0,30.25,WNW,301,1.0,5.0,40,0.00,,,0.00,,2013-02-28 12:42:00,
2013-02-28 05:52:00,24.0,4.0,30.27,NNW,331,1.0,7.0,42,0.00,,,0.00,,2013-02-28 12:52:00,
2013-02-28 06:02:00,24.0,4.0,30.27,NNW,331,1.0,7.0,42,0.00,,,0.00,,2013-02-28 13:02:00,
2013-02-28 06:11:00,24.0,4.0,30.27,NNW,331,1.0,7.0,42,0.00,,,0.00,,2013-02-28 13:11:00,
2013-02-28 06:22:00,24.0,5.0,30.27,NNW,329,2.0,4.0,43,0.00,,,0.00,,2013-02-28 13:22:00,
2013-02-28 06:32:00,24.0,5.0,30.28,NNW,338,1.0,4.0,44,0.00,,,0.00,,2013-02-28 13:32:00,
2013-02-28 06:42:00,24.0,5.0,30.28,NNW,338,1.0,4.0,44,0.00,,,0.00,,2013-02-28 13:42:00,
2013-02-28 06:52:00,24.0,5.0,30.29,NNW,337,1.0,4.0,44,0.00,,,0.00,,2013-02-28 13:52:00,
2013-02-28 07:01:00,24.0,5.0,30.29,NW,321,1.0,4.0,44,0.00,,,0.00,,2013-02-28 14:01:00,
2013-02-28 07:11:00,24.0,5.0,30.29,NW,321,1.0,4.0,44,0.00,,,0.00,,2013-02-28 14:11:00,
2013-02-28 07:22:00,24.0,5.0,30.29,NW,321,1.0,4.0,44,0.00,,,0.00,,2013-02-28 14:22:00,
2013-02-28 07:32:00,25.0,6.0,30.29,NW,316,2.0,6.0,43,0.00,,,0.00,,2013-02-28 14:32:00,
2013-02-28 07:42:00,25.0,6.0,30.29,NW,316,2.0,6.0,43,0.00,,,0.00,,2013-02-28 14:42:00,
2013-02-28 07:52:00,26.0,6.0,30.30,NW,304,1.0,6.0,42,0.00,,,0.00,,2013-02-28 14:52:00,
2013-02-28 08:02:00,28.0,7.0,30.32,NW,313,2.0,5.0,40,0.00,,,0.00,,2013-02-28 15:02:00,
2013-02-28 08:11:00,28.0,7.0,30.32,NW,313,2.0,5.0,40,0.00,,,0.00,,2013-02-28 15:11:00,
2013-02-28 08:21:00,28.0,7.0,30.32,NW,307,3.0,9.0,40,0.00,,,0.00,,2013-02-28 15:21:00,
2013-02-28 08:32:00,30.0,8.0,30.31,NW,320,4.0,9.0,39,0.00,,,0.00,,2013-02-28 15:32:00,
2013-02-28 08:42:00,30.0,8.0,30.31,NW,320,4.0,9.0,39,0.00,,,0.00,,2013-02-28 15:42:00,
2013-02-28 08:52:00,30.0,8.0,30.32,NNW,332,5.0,12.0,38,0.00,,,0.00,,2013-02-28 15:52:00,
2013-02-28 09:01:00,31.0,8.0,30.32,North,349,6.0,15.0,37,0.00,,,0.00,,2013-02-28 16:01:00,
2013-02-28 09:11:00,31.0,8.0,30.32,North,349,6.0,15.0,37,0.00,,,0.00,,2013-02-28 16:11:00,
2013-02-28 09:22:00,32.0,8.0,30.33,NNW,338,5.0,12.0,36,0.00,,,0.00,,2013-02-28 16:22:00,
2013-02-28 09:32:00,33.0,8.0,30.32,North,353,5.0,13.0,35,0.00,,,0.00,,2013-02-28 16:32:00,
2013-02-28 09:42:00,33.0,8.0,30.32,North,353,5.0,13.0,35,0.00,,,0.00,,2013-02-28 16:42:00,
2013-02-28 09:52:00,34.0,9.0,30.32,NNW,347,5.0,10.0,34,0.00,,,0.00,,2013-02-28 16:52:00,
2013-02-28 10:02:00,35.0,9.0,30.32,North,356,4.0,9.0,33,0.00,,,0.00,,2013-02-28 17:02:00,
2013-02-28 10:11:00,35.0,9.0,30.32,NW,326,3.0,8.0,33,0.00,,,0.00,,2013-02-28 17:11:00,
2013-02-28 10:22:00,35.0,9.0,30.32,NW,326,3.0,8.0,33,0.00,,,0.00,,2013-02-28 17:22:00,
2013-02-28 10:32:00,36.0,9.0,30.32,North,350,3.0,9.0,32,0.00,,,0.00,,2013-02-28 17:32:00,
2013-02-28 10:42:00,36.0,9.0,30.32,North,350,3.0,9.0,32,0.00,,,0.00,,2013-02-28 17:42:00,
2013-02-28 10:52:00,38.0,10.0,30.31,North,353,3.0,8.0,31,0.00,,,0.00,,2013-02-28 17:52:00,
2013-02-28 11:02:00,40.0,10.0,30.31,North,350,3.0,8.0,29,0.00,,,0.00,,2013-02-28 18:02:00,
2013-02-28 11:11:00,40.0,10.0,30.31,North,350,3.0,8.0,29,0.00,,,0.00,,2013-02-28 18:11:00,
2013-02-28 11:22:00,40.0,10.0,30.31,North,2,3.0,7.0,28,0.00,,,0.00,,2013-02-28 18:22:00,
2013-02-28 11:32:00,41.0,10.0,30.30,NNW,340,3.0,9.0,27,0.00,,,0.00,,2013-02-28 18:32:00,
2013-02-28 11:42:00,41.0,10.0,30.30,NNW,340,3.0,9.0,27,0.00,,,0.00,,2013-02-28 18:42:00,
2013-02-28 11:52:00,42.0,10.0,30.30,North,350,4.0,8.0,26,0.00,,,0.00,,2013-02-28 18:52:00,
2013-02-28 12:02:00,42.0,10.0,30.30,North,350,4.0,8.0,26,0.00,,,0.00,,2013-02-28 19:02:00,
2013-02-28 12:11:00,42.0,10.0,30.30,North,350,4.0,8.0,26,0.00,,,0.00,,2013-02-28 19:11:00,
2013-02-28 12:21:00,44.0,9.0,30.30,NNW,336,3.0,7.0,23,0.00,,,0.00,,2013-02-28 19:21:00,
2013-02-28 12:32:00,45.0,8.0,30.29,North,352,3.0,11.0,22,0.00,,,0.00,,2013-02-28 19:32:00,
2013-02-28 12:42:00,45.0,8.0,30.29,North,352,3.0,11.0,22,0.00,,,0.00,,2013-02-28 19:42:00,
2013-02-28 12:51:00,46.0,7.0,30.28,NNW,346,4.0,9.0,20,0.00,,,0.00,,2013-02-28 19:51:00,
2013-02-28 13:01:00,46.0,7.0,30.28,NNW,346,4.0,9.0,20,0.00,,,0.00,,2013-02-28 20:01:00,
2013-02-28 13:12:00,46.0,7.0,30.28,NNW,346,4.0,9.0,20,0.00,,,0.00,,2013-02-28 20:12:00,
2013-02-28 13:22:00,46.0,7.0,30.28,NNW,346,4.0,9.0,20,0.00,,,0.00,,2013-02-28 20:22:00,
2013-02-28 13:32:00,49.0,7.0,30.25,North,353,4.0,12.0,18,0.00,,,0.00,,2013-02-28 20:32:00,
2013-02-28 13:42:00,49.0,7.0,30.25,North,353,4.0,12.0,18,0.00,,,0.00,,2013-02-28 20:42:00,
2013-02-28 13:52:00,49.0,5.0,30.24,WNW,303,3.0,10.0,16,0.00,,,0.00,,2013-02-28 20:52:00,
2013-02-28 14:02:00,50.0,4.0,30.23,NW,312,3.0,10.0,15,0.00,,,0.00,,2013-02-28 21:02:00,
2013-02-28 14:11:00,50.0,4.0,30.23,NW,312,3.0,10.0,15,0.00,,,0.00,,2013-02-28 21:11:00,
2013-02-28 14:22:00,50.0,3.0,30.23,NW,305,3.0,8.0,14,0.00,,,0.00,,2013-02-28 21:22:00,
2013-02-28 14:32:00,50.0,-1.0,30.22,NW,305,4.0,8.0,12,0.00,,,0.00,,2013-02-28 21:32:00,
2013-02-28 14:42:00,50.0,-1.0,30.22,NW,305,4.0,8.0,12,0.00,,,0.00,,2013-02-28 21:42:00,
2013-02-28 14:52:00,50.0,-1.0,30.22,NW,311,5.0,12.0,12,0.00,,,0.00,,2013-02-28 21:52:00,
2013-02-28 15:01:00,51.0,-2.0,30.22,NW,324,4.0,10.0,11,0.00,,,0.00,,2013-02-28 22:01:00,
2013-02-28 15:11:00,51.0,-2.0,30.22,NW,324,4.0,10.0,11,0.00,,,0.00,,2013-02-28 22:11:00,
2013-02-28 15:21:00,52.0,-1.0,30.22,WNW,303,5.0,14.0,11,0.00,,,0.00,,2013-02-28 22:21:00,
2013-02-28 15:32:00,52.0,-3.0,30.22,NNW,332,5.0,17.0,10,0.00,,,0.00,,2013-02-28 22:32:00,
2013-02-28 15:42:00,52.0,-3.0,30.22,NNW,332,5.0,17.0,10,0.00,,,0.00,,2013-02-28 22:42:00,
2013-02-28 15:52:00,51.0,-2.0,30.22,NNW,329,6.0,13.0,11,0.00,,,0.00,,2013-02-28 22:52:00,
2013-02-28 16:01:00,50.0,-4.0,30.22,NW,326,6.0,17.0,10,0.00,,,0.00,,2013-02-28 23:01:00,
2013-02-28 16:11:00,50.0,-4.0,30.22,NW,326,6.0,17.0,10,0.00,,,0.00,,2013-02-28 23:11:00,
2013-02-28 16:22:00,50.0,-1.0,30.22,NW,305,6.0,14.0,12,0.00,,,0.00,,2013-02-28 23:22:00,
2013-02-28 16:32:00,50.0,1.0,30.22,NW,309,7.0,20.0,13,0.00,,,0.00,,2013-02-28 23:32:00,
2013-02-28 16:41:00,50.0,1.0,30.22,NW,309,7.0,20.0,13,0.00,,,0.00,,2013-02-28 23:41:00,
2013-02-28 16:53:00,50.0,1.0,30.22,NNW,330,6.0,14.0,13,0.00,,,0.00,,2013-02-28 23:53:00,
2013-02-28 17:01:00,49.0,2.0,30.23,NNW,347,6.0,14.0,14,0.00,,,0.00,,2013-03-01 00:01:00,
2013-02-28 17:11:00,49.0,2.0,30.23,NNW,347,6.0,14.0,14,0.00,,,0.00,,2013-03-01 00:11:00,
2013-02-28 17:22:00,48.0,3.0,30.23,NNW,345,7.0,14.0,15,0.00,,,0.00,,2013-03-01 00:22:00,
2013-02-28 17:32:00,47.0,3.0,30.24,NNW,348,7.0,14.0,16,0.00,,,0.00,,2013-03-01 00:32:00,
2013-02-28 17:41:00,47.0,3.0,30.24,NNW,348,7.0,14.0,16,0.00,,,0.00,,2013-03-01 00:41:00,
2013-02-28 17:51:00,46.0,2.0,30.24,NNW,343,5.0,11.0,16,0.00,,,0.00,,2013-03-01 00:51:00,
2013-02-28 18:01:00,45.0,3.0,30.24,NNW,344,4.0,14.0,17,0.00,,,0.00,,2013-03-01 01:01:00,
2013-02-28 18:11:00,45.0,3.0,30.24,NNW,344,4.0,14.0,17,0.00,,,0.00,,2013-03-01 01:11:00,
2013-02-28 18:21:00,44.0,2.0,30.24,NNW,341,2.0,9.0,17,0.00,,,0.00,,2013-03-01 01:21:00,
2013-02-28 18:32:00,43.0,2.0,30.25,NNW,335,2.0,5.0,18,0.00,,,0.00,,2013-03-01 01:32:00,
2013-02-28 18:42:00,43.0,2.0,30.25,NNW,335,2.0,5.0,18,0.00,,,0.00,,2013-03-01 01:42:00,
2013-02-28 18:51:00,42.0,2.0,30.25,NNW,327,1.0,5.0,18,0.00,,,0.00,,2013-03-01 01:51:00,
2013-02-28 19:01:00,42.0,2.0,30.25,NNW,327,1.0,5.0,18,0.00,,,0.00,,2013-03-01 02:01:00,
2013-02-28 19:11:00,42.0,2.0,30.25,NNW,327,1.0,5.0,18,0.00,,,0.00,,2013-03-01 02:11:00,
2013-02-28 19:21:00,41.0,2.0,30.25,NNW,339,0.0,2.0,19,0.00,,,0.00,,2013-03-01 02:21:00,
2013-02-28 19:32:00,39.0,1.0,30.25,North,0,0.0,0.0,20,0.00,,,0.00,,2013-03-01 02:32:00,
2013-02-28 19:42:00,39.0,1.0,30.25,North,0,0.0,0.0,20,0.00,,,0.00,,2013-03-01 02:42:00,
2013-02-28 19:52:00,41.0,2.0,30.26,WNW,293,1.0,6.0,19,0.00,,,0.00,,2013-03-01 02:52:00,
2013-02-28 20:02:00,41.0,2.0,30.27,WSW,257,1.0,4.0,19,0.00,,,0.00,,2013-03-01 03:02:00,
2013-02-28 20:11:00,41.0,2.0,30.27,WSW,257,1.0,4.0,19,0.00,,,0.00,,2013-03-01 03:11:00,
2013-02-28 20:21:00,41.0,3.0,30.27,West,278,1.0,4.0,20,0.00,,,0.00,,2013-03-01 03:21:00,
2013-02-28 20:32:00,40.0,3.0,30.27,WNW,296,0.0,2.0,21,0.00,,,0.00,,2013-03-01 03:32:00,
2013-02-28 20:42:00,40.0,3.0,30.27,WNW,296,0.0,2.0,21,0.00,,,0.00,,2013-03-01 03:42:00,
2013-02-28 20:51:00,40.0,4.0,30.28,WNW,289,1.0,5.0,22,0.00,,,0.00,,2013-03-01 03:51:00,
2013-02-28 21:01:00,39.0,4.0,30.27,WNW,294,2.0,6.0,23,0.00,,,0.00,,2013-03-01 04:01:00,
2013-02-28 21:11:00,39.0,4.0,30.27,WNW,294,2.0,6.0,23,0.00,,,0.00,,2013-03-01 04:11:00,
2013-02-28 21:21:00,38.0,4.0,30.27,WNW,295,1.0,7.0,24,0.00,,,0.00,,2013-03-01 04:21:00,
2013-02-28 21:32:00,36.0,4.0,30.29,SW,223,0.0,2.0,26,0.00,,,0.00,,2013-03-01 04:32:00,
2013-02-28 21:42:00,36.0,4.0,30.29,SW,223,0.0,2.0,26,0.00,,,0.00,,2013-03-01 04:42:00,
2013-02-28 21:52:00,37.0,5.0,30.29,West,271,0.0,2.0,26,0.00,,,0.00,,2013-03-01 04:52:00,
2013-02-28 22:02:00,37.0,5.0,30.29,WNW,303,1.0,5.0,26,0.00,,,0.00,,2013-03-01 05:02:00,
2013-02-28 22:11:00,37.0,5.0,30.29,WNW,303,1.0,5.0,26,0.00,,,0.00,,2013-03-01 05:11:00,
2013-02-28 22:22:00,37.0,6.0,30.29,North,351,5.0,11.0,27,0.00,,,0.00,,2013-03-01 05:22:00,
2013-02-28 22:32:00,37.0,6.0,30.29,North,351,5.0,11.0,27,0.00,,,0.00,,2013-03-01 05:32:00,
2013-02-28 22:42:00,37.0,6.0,30.29,North,351,5.0,11.0,27,0.00,,,0.00,,2013-03-01 05:42:00,
2013-02-28 22:53:00,36.0,5.0,30.29,NNW,339,3.0,8.0,27,0.00,,,0.00,,2013-03-01 05:53:00,
2013-02-28 23:02:00,36.0,5.0,30.29,NNW,346,3.0,7.0,27,0.00,,,0.00,,2013-03-01 06:02:00,
2013-02-28 23:11:00,36.0,5.0,30.29,NNW,346,3.0,7.0,27,0.00,,,0.00,,2013-03-01 06:11:00,
2013-02-28 23:22:00,36.0,5.0,30.29,NNW,346,3.0,7.0,27,0.00,,,0.00,,2013-03-01 06:22:00,
2013-02-28 23:32:00,35.0,6.0,30.29,SSE,157,1.0,5.0,29,0.00,,,0.00,,2013-03-01 06:32:00,
2013-02-28 23:42:00,35.0,6.0,30.29,SSE,157,1.0,5.0,29,0.00,,,0.00,,2013-03-01 06:42:00,
2013-02-28 23:53:00,36.0,6.0,30.27,NNW,342,4.0,10.0,28,0.00,,,0.00,,2013-03-01 06:53:00,